Fergus Falls, MN

6:05 PM CST on November 19, 2019 (GMT -0600)
Fergus Falls Municipal-Mickelson

Weather History for KFFM - September, 2019

Change the Weather History Date:

Wednesday, September 4, 2019

  Actual Average Record
Temperature  
Mean Temperature 55 °F -  
Max Temperature 68 °F 75 °F 93 °F (1970)
Min Temperature 42 °F 52 °F 37 °F (1956)
Degree Days  
Heating Degree Days 10    
Growing Degree Days 5 (Base 50)    
Moisture  
Dew Point 50 °F    
Average Humidity 81    
Maximum Humidity 100    
Minimum Humidity 56    
Precipitation  
Precipitation 0.00 in - - ()
Sea Level Pressure  
Sea Level Pressure 30.12 in    
Wind  
Wind Speed 3 mph ()    
Max Wind Speed 14 mph    
Max Gust Speed -    
Visibility 9.2 miles    
Events Fog    
Averages and records for this station are not official NWS values.
T = Trace of Precipitation, MM = Missing Value Source: Averaged Metar Reports

Daily Weather History Graph

Daily Weather History Graph

Search for Another Location

Airport or City:

Astronomy

Sep. 04, 2019 Rise Set
Actual Time 6:48 AM CDT 7:57 PM CDT
Civil Twilight 6:17 AM CDT 8:28 PM CDT
Nautical Twilight 5:40 AM CDT 9:05 PM CDT
Astronomical Twilight 5:01 AM CDT 9:44 PM CDT
Moon 1:11 PM CDT (9/4) 11:11 PM CDT (9/4)
Length of Visible Light 14h 11m
Length of Day
13h 09m
Waxing Crescent, 35% of the Moon is Illuminated
Sep 4
Waxing Crescent
Sep 5
First Quarter
Sep 13
Full
Sep 21
Last Quarter
Sep 28
New

Hourly Weather History & Observations

Time (CDT) Temp. Windchill Dew Point Humidity Pressure Visibility Wind Dir Wind Speed Gust Speed Precip Events Conditions
12:15 AM 53.6 °F - 46.4 °F 77% 30.13 in 10.0 mi North 3.5 mph - N/A   Clear
12:16 AM 51.8 °F - 46.4 °F 82% 30.13 in 10.0 mi Calm Calm - N/A   Clear
12:35 AM 50.0 °F - 46.4 °F 87% 30.13 in 10.0 mi North 5.8 mph - N/A   Clear
12:57 AM 48.2 °F - 46.4 °F 93% 30.14 in 10.0 mi NNW 3.5 mph - N/A   Clear
1:16 AM 48.2 °F - 46.4 °F 93% 30.13 in 10.0 mi Calm Calm - N/A   Clear
1:35 AM 50.0 °F - 46.4 °F 87% 30.13 in 10.0 mi Calm Calm - N/A   Clear
1:36 AM 50.0 °F - 46.4 °F 87% 30.13 in 10.0 mi Calm Calm - N/A   Clear
1:55 AM 48.2 °F - 46.4 °F 93% 30.14 in 10.0 mi Calm Calm - N/A   Clear
1:56 AM 48.2 °F - 46.4 °F 93% 30.14 in 10.0 mi Calm Calm - N/A   Clear
2:19 AM 46.4 °F - 44.6 °F 93% 30.14 in 10.0 mi Calm Calm - N/A   Clear
2:36 AM 48.2 °F - 46.4 °F 93% 30.14 in 10.0 mi Calm Calm - N/A   Clear
2:55 AM 46.4 °F - 46.4 °F 100% 30.15 in 10.0 mi Calm Calm - N/A   Clear
2:56 AM 46.4 °F - 46.4 °F 100% 30.15 in 10.0 mi Calm Calm - N/A   Clear
3:15 AM 46.4 °F - 44.6 °F 93% 30.15 in 10.0 mi Calm Calm - N/A   Clear
3:16 AM 46.4 °F - 44.6 °F 93% 30.15 in 10.0 mi Calm Calm - N/A   Clear
3:35 AM 46.4 °F - 44.6 °F 93% 30.14 in 10.0 mi Calm Calm - N/A   Clear
3:39 AM 46.4 °F - 44.6 °F 93% 30.15 in 10.0 mi Calm Calm - N/A   Clear
3:58 AM 44.6 °F - 44.6 °F 100% 30.16 in 10.0 mi Calm Calm - N/A   Clear
4:15 AM 44.6 °F - 44.6 °F 100% 30.16 in 10.0 mi Calm Calm - N/A   Clear
4:35 AM 46.4 °F - 44.6 °F 93% 30.16 in 10.0 mi Calm Calm - N/A   Clear
4:36 AM 44.6 °F - 44.6 °F 100% 30.16 in 10.0 mi Calm Calm - N/A   Clear
4:55 AM 44.6 °F 43.1 °F 44.6 °F 100% 30.17 in 10.0 mi WNW 3.5 mph - N/A   Clear
5:18 AM 44.6 °F - 42.8 °F 93% 30.17 in 3.0 mi Calm Calm - N/A   Clear
5:36 AM 44.6 °F - 44.6 °F 100% 30.18 in 5.0 mi Calm Calm - N/A   Clear
5:55 AM 42.8 °F - 42.8 °F 100% 30.18 in 0.5 mi Calm Calm - N/A Fog Fog
5:56 AM 42.8 °F - 42.8 °F 100% 30.18 in 0.5 mi Calm Calm - N/A Fog Fog
6:15 AM 44.6 °F - 44.6 °F 100% 30.19 in 2.5 mi Calm Calm - N/A   Scattered Clouds
6:16 AM 44.6 °F - 44.6 °F 100% 30.19 in 2.5 mi Calm Calm - N/A   Scattered Clouds
6:35 AM 44.6 °F 43.1 °F 44.6 °F 100% 30.19 in 1.2 mi NE 3.5 mph - N/A   Mostly Cloudy
6:40 AM 44.6 °F - 44.6 °F 100% 30.19 in 1.0 mi Calm Calm - N/A   Mostly Cloudy
6:57 AM 42.8 °F - 42.8 °F 100% 30.19 in 0.2 mi Calm Calm - N/A Fog Fog
7:15 AM 42.8 °F - 42.8 °F 100% 30.20 in 0.5 mi Calm Calm - N/A Fog Fog
7:35 AM 44.6 °F - 44.6 °F 100% 30.20 in 10.0 mi Calm Calm - N/A   Clear
7:55 AM 46.4 °F - 46.4 °F 100% 30.20 in 10.0 mi Calm Calm - N/A   Clear
7:56 AM 46.4 °F - 46.4 °F 100% 30.20 in 10.0 mi Calm Calm - N/A   Clear
8:19 AM 48.2 °F - 48.2 °F 100% 30.20 in 10.0 mi Calm Calm - N/A   Clear
8:36 AM 50.0 °F - 50.0 °F 100% 30.21 in 10.0 mi Calm Calm - N/A   Clear
8:56 AM 51.8 °F - 51.8 °F 100% 30.20 in 10.0 mi Calm Calm - N/A   Clear
9:15 AM 53.6 °F - 50.0 °F 88% 30.20 in 10.0 mi SW 3.5 mph - N/A   Clear
9:16 AM 53.6 °F - 50.0 °F 88% 30.20 in 10.0 mi SW 3.5 mph - N/A   Clear
9:35 AM 53.6 °F - 48.2 °F 82% 30.20 in 10.0 mi WSW 3.5 mph - N/A   Clear
9:39 AM 53.6 °F - 48.2 °F 82% 30.20 in 10.0 mi WSW 3.5 mph - N/A   Clear
9:58 AM 55.4 °F - 48.2 °F 77% 30.20 in 10.0 mi SSW 3.5 mph - N/A   Clear
10:15 AM 55.4 °F - 48.2 °F 77% 30.20 in 10.0 mi Calm Calm - N/A   Clear
10:35 AM 57.2 °F - 48.2 °F 72% 30.19 in 10.0 mi SW 4.6 mph - N/A   Clear
10:36 AM 57.2 °F - 48.2 °F 72% 30.19 in 10.0 mi SW 3.5 mph - N/A   Clear
10:55 AM 57.2 °F - 48.2 °F 72% 30.19 in 10.0 mi SSE 6.9 mph - N/A   Clear
11:18 AM 57.2 °F - 48.2 °F 72% 30.18 in 10.0 mi South 5.8 mph - N/A   Clear
11:37 AM 60.8 °F - 48.2 °F 63% 30.18 in 10.0 mi SSE 6.9 mph - N/A   Clear
11:56 AM 60.8 °F - 48.2 °F 63% 30.18 in 10.0 mi SSE 4.6 mph - N/A   Clear
12:15 PM 60.8 °F - 51.8 °F 72% 30.17 in 10.0 mi SW 4.6 mph - N/A   Clear
12:16 PM 62.6 °F - 51.8 °F 68% 30.17 in 10.0 mi SW 5.8 mph - N/A   Clear
12:35 PM 62.6 °F - 51.8 °F 68% 30.17 in 10.0 mi South 5.8 mph - N/A   Clear
12:57 PM 62.6 °F - 51.8 °F 68% 30.16 in 10.0 mi SSW 4.6 mph - N/A   Clear
1:15 PM 64.4 °F - 51.8 °F 64% 30.16 in 10.0 mi South 8.1 mph - N/A   Clear
1:35 PM 64.4 °F - 51.8 °F 64% 30.16 in 10.0 mi SW 8.1 mph - N/A   Clear
1:36 PM 64.4 °F - 51.8 °F 64% 30.16 in 10.0 mi SW 5.8 mph - N/A   Clear
1:55 PM 64.4 °F - 53.6 °F 68% 30.16 in 10.0 mi SSW 5.8 mph - N/A   Scattered Clouds
2:19 PM 64.4 °F - 53.6 °F 68% 30.15 in 10.0 mi SW 4.6 mph - N/A   Clear
2:36 PM 66.2 °F - 53.6 °F 64% 30.13 in 10.0 mi SSW 6.9 mph - N/A   Clear
2:56 PM 66.2 °F - 53.6 °F 64% 30.13 in 10.0 mi SSW 4.6 mph - N/A   Clear
3:15 PM 66.2 °F - 53.6 °F 64% 30.12 in 10.0 mi South 6.9 mph - N/A   Clear
3:35 PM 66.2 °F - 53.6 °F 64% 30.11 in 10.0 mi SSW 5.8 mph - N/A   Clear
3:39 PM 66.2 °F - 53.6 °F 64% 30.11 in 10.0 mi South 6.9 mph - N/A   Clear
3:57 PM 66.2 °F - 53.6 °F 64% 30.10 in 10.0 mi South 6.9 mph - N/A   Clear
4:16 PM 66.2 °F - 53.6 °F 64% 30.10 in 10.0 mi South 5.8 mph - N/A   Clear
4:35 PM 68.0 °F - 51.8 °F 56% 30.09 in 10.0 mi South 8.1 mph - N/A   Clear
4:36 PM 68.0 °F - 53.6 °F 60% 30.09 in 10.0 mi South 8.1 mph - N/A   Clear
4:55 PM 68.0 °F - 53.6 °F 60% 30.08 in 10.0 mi South 9.2 mph - N/A   Clear
4:56 PM 68.0 °F - 53.6 °F 60% 30.08 in 10.0 mi South 9.2 mph - N/A   Clear
5:18 PM 68.0 °F - 53.6 °F 60% 30.08 in 10.0 mi South 10.4 mph - N/A   Clear
5:36 PM 68.0 °F - 55.4 °F 64% 30.07 in 10.0 mi SSE 8.1 mph - N/A   Clear
5:55 PM 68.0 °F - 55.4 °F 64% 30.07 in 10.0 mi South 9.2 mph - N/A   Clear
5:56 PM 68.0 °F - 55.4 °F 64% 30.07 in 10.0 mi South 10.4 mph - N/A   Clear
6:15 PM 68.0 °F - 55.4 °F 64% 30.07 in 10.0 mi SSE 8.1 mph - N/A   Clear
6:16 PM 68.0 °F - 55.4 °F 64% 30.07 in 10.0 mi SSE 6.9 mph - N/A   Clear
6:35 PM 68.0 °F - 55.4 °F 64% 30.06 in 10.0 mi South 8.1 mph - N/A   Clear
6:40 PM 66.2 °F - 55.4 °F 68% 30.06 in 10.0 mi SSE 9.2 mph - N/A   Clear
6:57 PM 64.4 °F - 55.4 °F 73% 30.06 in 10.0 mi SSE 6.9 mph - N/A   Clear
7:15 PM 64.4 °F - 55.4 °F 73% 30.06 in 10.0 mi SSE 5.8 mph - N/A   Clear
7:35 PM 64.4 °F - 55.4 °F 73% 30.06 in 10.0 mi SE 4.6 mph - N/A   Clear
7:36 PM 64.4 °F - 55.4 °F 73% 30.06 in 10.0 mi SE 4.6 mph - N/A   Clear
7:55 PM 62.6 °F - 55.4 °F 77% 30.06 in 10.0 mi SSE 5.8 mph - N/A   Clear
7:56 PM 62.6 °F - 55.4 °F 77% 30.06 in 10.0 mi SSE 5.8 mph - N/A   Clear
8:19 PM 62.6 °F - 55.4 °F 77% 30.06 in 10.0 mi SSE 6.9 mph - N/A   Clear
8:36 PM 60.8 °F - 55.4 °F 82% 30.05 in 10.0 mi SSE 8.1 mph - N/A   Clear
8:56 PM 60.8 °F - 55.4 °F 82% 30.04 in 10.0 mi SSE 9.2 mph - N/A   Clear
9:15 PM 60.8 °F - 55.4 °F 82% 30.03 in 10.0 mi SSE 10.4 mph - N/A   Clear
9:16 PM 60.8 °F - 55.4 °F 82% 30.02 in 10.0 mi SSE 11.5 mph - N/A   Clear
9:35 PM 60.8 °F - 55.4 °F 82% 30.01 in 10.0 mi SSE 12.7 mph - N/A   Clear
9:39 PM 60.8 °F - 55.4 °F 82% 30.01 in 10.0 mi SSE 13.8 mph - N/A   Clear
9:58 PM 60.8 °F - 55.4 °F 82% 30.02 in 10.0 mi SSE 12.7 mph - N/A   Clear
10:15 PM 60.8 °F - 55.4 °F 82% 30.03 in 10.0 mi SSE 9.2 mph - N/A   Clear
10:35 PM 60.8 °F - 55.4 °F 82% 30.02 in 10.0 mi SE 9.2 mph - N/A   Clear
10:36 PM 60.8 °F - 55.4 °F 82% 30.02 in 10.0 mi SE 10.4 mph - N/A   Clear
10:55 PM 60.8 °F - 53.6 °F 77% 30.02 in 10.0 mi SE 9.2 mph - N/A   Clear
10:56 PM 60.8 °F - 53.6 °F 77% 30.02 in 10.0 mi SE 9.2 mph - N/A   Clear
11:18 PM 60.8 °F - 53.6 °F 77% 30.02 in 10.0 mi SE 9.2 mph - N/A   Clear
11:37 PM 60.8 °F - 53.6 °F 77% 30.02 in 10.0 mi SE 8.1 mph - N/A   Clear
11:56 PM 62.6 °F - 53.6 °F 72% 30.03 in 10.0 mi SE 10.4 mph - N/A   Clear